Temp
47 49 47 48 47 47 47 48 49 50 50 50 51 50 50 50 50 50 49 48 46 44 44 43 43 43 42 42 43 44 44 44 41 45 48 52 52 54 57 58 57 54 55
48 48 47 47 47 47 47 48 49 49 50 50 50 49 49 49 49 48 48 47 46 44 43 42 41 42 40 41 42 41 41 43 41 38 42 45 49 53 54 52 52 53 54
49 48 47 45 46 46 47 47 48 48 48 48 48 48 48 47 47 48 46 46 45 44 44 42 41 41 39 41 41 41 40 41 40 37 38 44 47 49 47 47 49 50 53
48 47 46 46 47 48 48 48 48 48 47 47 46 46 46 47 47 47 45 44 44 44 43 42 42 41 40 40 40 39 39 37 36 36 37 39 42 45 43 42 44 49 50
48 47 47 49 49 49 47 47 47 47 47 47 46 46 46 45 45 45 44 43 41 41 42 43 42 42 41 40 40 38 37 35 35 34 35 36 36 37 38 40 42 45 49
47 47 48 48 48 48 48 47 47 47 47 47 46 46 46 45 41 41 41 41 41 41 41 42 43 42 41 39 39 38 37 35 33 33 33 33 35 36 37 37 39 40 41
43 44 45 45 45 45 47 47 46 46 46 45 45 46 45 45 40 40 39 42 41 41 41 41 41 43 40 40 40 37 37 36 33 35 33 34 34 37 36 35 38 41 43
40 40 41 41 41 43 43 44 43 45 44 44 44 44 45 46 40 39 38 40 40 41 41 41 40 39 39 38 38 37 37 38 38 38 37 37 38 39 38 37 38 42 43
38 39 40 40 39 39 39 39 40 39 38 40 42 43 43 44 39 38 38 40 39 39 41 40 40 38 37 36 35 34 35 36 39 38 38 38 37 37 37 37 39 37 36
37 38 39 39 38 38 39 38 41 41 41 41 41 43 42 43 40 38 38 38 36 37 39 38 36 36 35 35 34 33 32 35 37 39 39 39 38 39 36 38 39 38 37
37 37 37 37 37 37 36 38 37 37 39 38 37 38 41 42 42 38 38 38 36 35 35 35 36 35 35 35 35 34 34 35 33 33 34 35 36 37 37 38 37 38 37
36 36 35 35 36 36 34 35 36 35 35 35 34 36 37 38 37 37 37 37 36 35 34 35 34 35 35 35 35 34 34 33 34 33 32 32 33 33 35 36 36 37 38
34 34 34 34 35 35 34 34 34 33 32 32 33 34 34 34 36 36 36 35 35 34 35 34 34 35 34 33 34 34 32 33 32 32 32 32 33 34 34 34 34 34 34
32 32 33 32 32 32 34 34 34 33 31 31 32 33 33 33 34 38 35 36 34 34 33 34 34 32 32 33 33 33 33 33 32 32 32 32 33 33 33 34 34 33 33
31 31 31 31 30 29 30 31 31 32 33 30 31 33 32 31 33 36 36 36 36 36 34 34 33 33 33 32 33 33 33 33 32 32 32 32 32 33 33 34 34 34 33
27 27 28 28 27 27 27 27 30 31 32 33 31 32 33 32 32 33 34 34 35 34 33 32 32 31 32 32 32 32 33 32 32 32 32 32 32 32 33 34 34 34 33
24 25 25 26 25 24 24 24 23 27 31 32 31 30 30 33 33 33 33 32 34 33 33 32 31 31 32 33 32 33 32 33 32 32 32 32 32 33 32 33 34 33 33
23 22 23 23 23 22 22 23 24 23 24 27 30 29 29 29 32 32 31 33 33 33 34 34 32 32 32 33 34 33 33 33 33 32 31 31 32 32 32 32 33 33 33
22 22 22 21 21 21 22 23 23 23 23 24 28 29 28 27 28 29 30 31 29 31 32 33 33 32 32 31 32 33 32 32 32 32 32 31 32 32 32 32 33 33 33
22 20 19 20 20 20 21 21 21 21 21 22 23 25 26 26 24 25 27 28 29 29 31 32 33 33 32 32 32 31 31 32 33 33 32 32 31 32 32 32 32 33 33
21 20 18 20 19 19 19 19 20 21 20 21 22 24 23 23 23 24 26 27 28 29 29 30 32 32 32 32 32 31 32 31 32 33 33 32 31 31 33 34 33 33 33
19 19 18 17 17 17 16 17 17 17 18 19 22 23 22 24 25 25 26 26 27 28 29 29 30 32 32 32 31 30 30 30 31 32 32 32 31 31 32 33 34 33 33
18 18 17 16 16 14 14 15 15 16 17 18 20 19 21 22 22 23 24 25 26 27 29 29 29 29 32 31 31 30 29 30 30 30 30 31 31 31 31 32 34 33 33
18 16 15 14 14 12 13 11 13 14 15 16 17 18 18 20 21 22 23 25 25 26 26 26 26 27 30 29 30 30 30 30 29 30 29 30 31 31 31 31 33 33 34
16 14 14 13 11 11 11 11 10 11 12 15 15 16 17 18 19 21 23 24 23 23 25 25 26 26 26 26 26 26 27 27 25 26 29 29 30 30 31 31 32 33 33
15 14 12 11 11 11 10 9 8 9 9 10 13 13 15 15 16 19 20 21 22 23 24 25 25 24 25 26 27 26 24 23 23 23 25 27 29 31 31 31 32 33 33
MSLP
1021.49 1021.93 1021.75 1021.63 1021.68 1021.55 1021.21 1020.91 1020.45 1020.12 1019.82 1019.57 1019.39 1019.25 1019.04 1018.74 1018.47 1018.19 1017.87 1017.61 1017.46 1017.57 1017.69 1017.78 1017.67 1017.51 1017.30 1017.09 1016.58 1016.09 1015.44 1015.26 1014.23 1011.09 1011.23 1010.49 1009.78 1009.05 1007.97 1007.31 1006.76 1006.29 1006.10
1020.99 1021.36 1021.29 1021.06 1021.12 1020.77 1020.36 1019.96 1019.70 1019.46 1019.15 1018.89 1018.64 1018.43 1018.21 1017.88 1017.65 1017.48 1017.22 1017.17 1017.16 1017.08 1017.20 1017.22 1017.02 1016.93 1016.86 1016.53 1015.98 1015.59 1015.52 1015.19 1013.87 1011.86 1011.23 1010.26 1009.24 1008.30 1007.43 1006.83 1005.53 1004.47 1003.89
1020.48 1020.45 1020.53 1020.45 1020.34 1020.00 1019.61 1019.33 1019.13 1018.94 1018.67 1018.48 1018.34 1018.06 1017.77 1017.60 1017.40 1017.20 1017.05 1016.89 1016.61 1016.62 1016.63 1016.61 1016.56 1016.51 1016.16 1015.60 1015.25 1015.22 1015.28 1014.42 1013.44 1012.37 1010.64 1009.75 1008.47 1007.86 1006.68 1005.67 1004.21 1003.28 1002.10
1019.82 1019.68 1019.67 1019.47 1019.42 1019.03 1018.70 1018.50 1018.37 1018.25 1018.14 1018.04 1017.94 1017.71 1017.53 1017.38 1017.15 1016.83 1016.67 1016.42 1016.35 1016.32 1016.29 1016.28 1016.14 1015.79 1015.26 1014.73 1014.82 1014.99 1014.65 1013.68 1012.95 1011.98 1010.76 1009.38 1008.27 1007.28 1006.27 1005.20 1003.31 1002.07 1000.71
1019.04 1018.96 1018.58 1018.41 1018.40 1018.04 1017.82 1017.72 1017.67 1017.59 1017.40 1017.28 1017.12 1016.91 1016.77 1016.60 1016.48 1016.25 1016.18 1016.17 1016.15 1016.03 1015.88 1015.61 1015.29 1014.91 1014.30 1014.23 1014.48 1014.43 1014.07 1013.16 1012.40 1011.42 1010.30 1009.03 1007.85 1006.71 1006.41 1005.09 1003.32 1002.05 999.57
1019.53 1019.43 1019.12 1018.65 1018.26 1017.94 1017.54 1017.27 1017.01 1016.75 1016.52 1016.44 1016.21 1015.94 1015.74 1015.65 1015.78 1015.85 1015.85 1015.79 1015.72 1015.46 1015.02 1014.74 1014.39 1014.01 1013.51 1013.58 1013.73 1013.67 1013.50 1012.73 1011.83 1010.88 1010.00 1008.92 1007.75 1007.35 1006.25 1005.02 1003.29 1001.51 999.61
1019.81 1019.55 1019.20 1018.78 1018.25 1017.81 1017.34 1016.87 1016.44 1016.03 1015.75 1015.42 1015.24 1015.15 1014.88 1014.76 1014.89 1015.06 1015.19 1015.09 1014.95 1014.60 1014.28 1014.07 1013.64 1013.15 1013.12 1013.09 1012.93 1012.63 1012.19 1011.82 1011.23 1010.44 1009.41 1008.75 1007.84 1007.30 1006.45 1005.03 1003.34 1001.53 999.96
1020.42 1020.11 1019.72 1019.20 1018.52 1017.86 1017.23 1016.58 1015.99 1015.58 1015.09 1014.61 1014.04 1013.91 1013.76 1013.78 1013.91 1014.01 1014.28 1014.32 1014.14 1013.86 1013.52 1013.29 1013.05 1012.78 1012.71 1012.82 1012.54 1011.85 1011.31 1010.83 1010.13 1009.53 1008.87 1008.07 1007.53 1006.59 1006.05 1004.85 1003.28 1001.38 999.57
1020.78 1020.34 1019.83 1019.22 1018.48 1017.63 1016.83 1016.19 1015.35 1015.02 1014.44 1014.02 1013.36 1012.68 1012.56 1012.50 1013.00 1013.02 1013.37 1013.47 1013.34 1013.09 1012.80 1012.69 1012.61 1012.37 1012.36 1012.52 1012.20 1011.47 1010.66 1010.03 1009.25 1008.76 1008.19 1007.40 1006.75 1006.25 1005.68 1004.54 1002.88 1001.71 1000.53
1021.11 1020.54 1019.98 1019.33 1018.59 1017.68 1016.87 1016.03 1014.97 1014.17 1013.36 1012.80 1012.15 1011.85 1011.38 1011.47 1012.01 1012.26 1012.59 1012.57 1012.51 1012.31 1012.19 1012.09 1012.07 1012.03 1011.97 1011.91 1011.67 1011.15 1010.36 1009.33 1008.58 1007.79 1007.30 1006.59 1005.98 1005.13 1004.51 1003.74 1002.77 1002.07 1000.84
1021.58 1020.99 1020.33 1019.62 1018.70 1017.85 1016.97 1016.04 1015.09 1013.94 1012.83 1011.93 1011.36 1010.92 1010.61 1010.51 1010.73 1011.27 1011.64 1011.69 1011.56 1011.62 1011.54 1011.45 1011.41 1011.37 1011.33 1011.16 1011.04 1010.64 1009.85 1009.17 1008.43 1007.71 1006.96 1006.42 1005.60 1004.97 1004.28 1003.49 1002.72 1001.89 1001.20
1021.73 1020.89 1020.17 1019.56 1018.79 1017.97 1016.98 1015.83 1014.79 1013.73 1012.44 1011.29 1010.60 1009.93 1009.49 1009.55 1010.09 1010.24 1010.56 1010.86 1010.79 1010.86 1010.86 1010.81 1010.78 1010.69 1010.52 1010.31 1010.26 1009.90 1009.45 1008.85 1008.15 1007.45 1006.73 1006.25 1005.84 1004.83 1004.16 1003.40 1002.51 1001.90 1001.55
1021.72 1020.95 1020.22 1019.55 1018.76 1018.01 1016.91 1015.79 1014.67 1013.58 1012.42 1010.96 1009.89 1009.04 1008.66 1008.58 1009.03 1009.37 1009.93 1010.23 1010.15 1010.22 1010.20 1010.31 1010.29 1010.28 1010.05 1009.76 1009.64 1009.44 1009.15 1008.55 1008.03 1007.30 1006.68 1006.03 1005.82 1005.46 1004.48 1003.54 1002.83 1002.48 1002.12
1021.91 1021.11 1020.26 1019.50 1018.78 1018.04 1017.10 1016.00 1014.77 1013.50 1012.24 1010.91 1009.24 1008.06 1007.80 1007.73 1008.21 1008.66 1009.27 1009.65 1009.57 1009.56 1009.57 1009.70 1009.81 1009.85 1009.76 1009.57 1009.36 1009.18 1008.92 1008.55 1008.16 1007.59 1006.95 1006.03 1005.34 1004.69 1004.22 1003.41 1003.05 1002.81 1002.72
1022.22 1021.36 1020.53 1019.73 1018.96 1018.00 1017.16 1016.29 1015.12 1013.93 1012.70 1011.15 1009.15 1007.68 1007.31 1007.13 1007.55 1008.24 1008.49 1008.94 1008.89 1008.87 1009.08 1009.22 1009.31 1009.30 1009.16 1009.14 1009.01 1008.85 1008.71 1008.44 1007.99 1007.62 1007.18 1006.51 1005.53 1004.55 1003.65 1003.45 1003.00 1003.08 1003.26
1022.47 1021.70 1020.85 1019.96 1019.18 1018.30 1017.15 1015.45 1014.94 1013.93 1012.64 1011.26 1010.06 1008.58 1007.63 1007.28 1007.46 1007.91 1008.25 1008.60 1008.65 1008.64 1008.84 1008.80 1008.70 1008.83 1008.62 1008.66 1008.64 1008.52 1008.40 1008.22 1007.94 1007.49 1006.93 1006.47 1005.84 1005.25 1004.50 1003.69 1003.63 1003.59 1003.44
1022.94 1022.06 1021.09 1020.11 1019.36 1018.43 1017.38 1016.38 1014.55 1013.04 1012.44 1011.43 1010.52 1009.65 1008.55 1007.47 1007.35 1007.54 1007.96 1008.34 1008.24 1008.33 1008.22 1008.47 1008.29 1008.23 1008.16 1008.16 1008.25 1008.19 1008.04 1007.84 1007.65 1007.39 1006.97 1006.40 1005.84 1005.23 1004.64 1004.10 1003.55 1003.16 1003.19
1023.20 1022.34 1021.42 1020.50 1019.61 1018.62 1017.67 1016.50 1015.38 1014.05 1012.43 1011.31 1010.81 1010.37 1009.57 1008.49 1007.38 1007.37 1007.90 1008.13 1008.20 1008.28 1008.27 1008.27 1008.00 1008.10 1008.04 1007.94 1007.86 1007.79 1007.69 1007.51 1007.29 1007.08 1006.89 1006.52 1005.83 1005.28 1004.71 1004.27 1003.87 1003.75 1003.79
1023.13 1022.22 1021.54 1020.60 1019.59 1018.72 1017.48 1016.38 1015.39 1014.42 1013.41 1012.28 1011.20 1010.56 1010.28 1009.89 1009.26 1008.61 1008.29 1008.19 1008.31 1008.38 1008.48 1008.56 1008.25 1008.44 1008.25 1008.20 1008.10 1007.76 1007.53 1007.27 1007.08 1006.82 1006.67 1006.52 1006.07 1005.66 1005.07 1004.60 1004.28 1003.99 1004.00
1022.89 1022.22 1021.58 1020.40 1019.33 1018.37 1017.43 1016.36 1015.34 1014.54 1013.67 1012.82 1011.98 1011.30 1010.93 1010.55 1009.92 1009.58 1009.24 1008.78 1008.62 1008.63 1008.61 1008.61 1008.55 1008.56 1008.47 1008.27 1008.03 1007.88 1007.57 1007.11 1006.68 1006.34 1006.17 1006.06 1006.08 1005.72 1005.10 1004.60 1004.08 1003.79 1003.55
1022.59 1021.80 1021.27 1020.14 1019.37 1018.59 1017.66 1016.66 1015.62 1014.58 1013.71 1012.93 1012.34 1011.85 1011.74 1011.16 1010.50 1010.10 1009.64 1009.27 1009.08 1008.75 1008.74 1008.78 1008.77 1008.68 1008.71 1008.28 1008.23 1007.92 1007.61 1007.24 1006.80 1006.25 1005.83 1005.35 1005.10 1005.08 1004.91 1004.52 1004.22 1003.72 1003.32
1022.56 1021.73 1020.86 1020.17 1019.43 1018.59 1017.97 1017.05 1016.05 1015.21 1014.35 1013.44 1012.42 1011.85 1011.69 1011.13 1010.51 1010.07 1009.70 1009.43 1009.40 1009.29 1009.01 1008.83 1008.68 1008.65 1008.53 1008.27 1008.25 1008.08 1007.79 1007.51 1006.97 1006.31 1005.85 1005.43 1004.98 1004.41 1004.10 1003.85 1003.64 1003.43 1003.39
1022.46 1021.56 1020.72 1020.08 1019.51 1018.82 1018.09 1017.23 1016.26 1015.42 1014.42 1013.57 1012.80 1012.34 1011.74 1011.19 1010.76 1010.27 1009.85 1009.55 1009.35 1009.07 1008.94 1008.81 1008.61 1008.51 1008.38 1008.26 1008.20 1008.11 1007.90 1007.64 1007.36 1006.99 1006.38 1005.67 1005.17 1004.71 1004.09 1003.37 1003.08 1003.02 1003.20
1022.28 1021.50 1020.69 1020.03 1019.39 1018.86 1018.03 1017.41 1016.49 1015.54 1014.64 1013.76 1012.99 1012.55 1011.92 1011.23 1010.64 1010.19 1009.82 1009.49 1009.30 1009.00 1008.81 1008.70 1008.49 1008.27 1008.04 1007.99 1008.01 1007.94 1007.82 1007.83 1007.60 1007.15 1006.76 1005.94 1005.25 1004.86 1004.53 1004.00 1003.13 1002.60 1002.66
1022.28 1021.44 1020.70 1020.02 1019.33 1018.58 1017.90 1017.30 1016.69 1015.82 1015.01 1013.80 1013.14 1012.71 1012.02 1011.38 1010.66 1010.07 1009.57 1009.30 1009.17 1008.95 1008.60 1008.42 1008.24 1008.02 1007.82 1007.79 1007.83 1007.82 1007.71 1007.79 1007.62 1007.30 1006.52 1005.90 1005.12 1004.70 1004.41 1004.12 1003.69 1003.27 1002.95
1022.32 1021.57 1020.84 1020.04 1019.18 1018.50 1017.85 1017.16 1016.60 1015.94 1015.12 1014.46 1013.55 1013.01 1012.19 1011.79 1011.21 1010.20 1009.66 1009.29 1008.93 1008.60 1008.38 1008.10 1007.89 1007.78 1007.62 1007.41 1007.33 1007.44 1007.55 1007.53 1007.19 1006.96 1006.48 1005.69 1004.85 1004.15 1003.85 1003.67 1003.34 1003.07 1002.89
Wind_Speed
7 10 8 8 9 9 9 9 8 8 9 9 9 9 9 9 8 8 8 8 7 7 8 9 10 10 8 8 7 7 7 7 14 14 10 13 17 18 17 17 16 16 15
11 10 11 9 10 10 9 9 8 9 9 10 11 11 11 10 10 10 11 10 11 10 10 9 12 7 11 10 7 9 8 11 11 18 13 13 16 16 17 19 17 14 15
11 11 11 12 11 11 11 9 9 9 10 10 11 12 12 11 11 11 11 12 11 12 12 10 12 11 10 8 10 9 10 8 9 11 13 12 12 13 13 16 15 16 14
11 11 12 15 13 12 10 9 9 9 10 11 11 12 11 11 12 12 11 12 11 12 12 10 13 11 11 10 10 12 11 9 10 9 10 10 10 11 10 14 13 11 13
11 12 15 14 12 10 10 10 11 11 11 12 12 12 12 11 10 11 11 9 11 12 13 13 11 12 14 12 8 12 12 10 8 9 10 9 9 9 10 12 13 13 14
10 12 13 14 13 13 13 12 12 13 13 12 14 14 13 10 11 12 10 11 13 14 13 12 10 12 11 11 13 15 13 13 13 9 10 10 11 9 10 11 14 12 9
12 13 14 15 15 16 16 15 16 16 15 15 15 15 15 14 11 13 14 11 11 13 13 10 9 8 7 9 17 14 14 14 12 12 13 11 13 12 12 14 15 13 12
13 13 14 15 15 15 16 16 16 15 17 15 15 15 15 13 12 13 12 11 10 14 12 10 9 9 8 9 13 15 13 12 11 9 11 13 15 14 14 13 15 14 9
14 15 15 15 15 15 15 16 15 13 13 16 18 17 17 16 13 11 11 10 10 13 12 8 9 9 9 10 11 14 15 12 11 13 16 19 19 20 18 9 9 8 7
16 17 16 17 17 18 17 17 17 16 16 14 16 18 18 16 14 11 11 7 10 8 9 8 8 10 10 10 10 11 13 12 13 15 13 13 14 14 14 7 7 8 4
16 16 16 16 17 17 18 17 16 17 17 15 15 14 16 16 15 14 13 10 7 7 5 5 5 10 11 11 11 9 11 12 11 9 9 8 9 9 9 8 9 4 3
15 16 16 17 14 12 16 14 16 17 17 15 14 14 10 12 15 13 14 14 9 7 6 5 5 11 11 9 9 10 13 8 6 7 7 7 7 10 9 9 8 3 3
17 17 17 17 16 17 17 16 14 14 14 14 12 12 11 7 9 13 10 11 12 7 6 7 11 10 11 7 8 9 7 5 6 7 8 8 8 8 9 7 3 3 4
17 18 17 17 18 16 13 12 13 13 13 15 13 12 8 5 7 7 5 7 10 7 6 6 5 6 6 5 4 4 4 4 5 6 7 8 8 6 6 5 2 2 2
16 16 16 14 16 16 14 13 13 15 16 14 15 7 6 6 6 9 7 6 5 4 3 3 3 3 2 2 3 4 4 4 4 5 6 6 7 8 6 5 2 1 1
15 13 13 12 13 13 13 15 19 21 27 24 28 14 4 6 6 10 11 9 8 7 5 5 3 3 2 2 4 5 4 5 4 6 6 5 6 6 7 6 2 1 1
15 15 13 13 13 13 13 13 15 17 22 21 24 25 31 10 8 6 5 3 6 4 4 5 4 2 2 3 3 5 6 5 5 5 6 6 6 6 6 6 3 1 1
15 16 12 12 12 12 13 13 12 13 14 13 17 18 23 29 0 10 7 3 1 0 2 2 1 2 4 5 5 5 6 5 5 6 6 6 5 6 6 5 4 2 3
13 11 13 13 12 13 13 13 12 13 12 12 12 12 13 20 18 15 7 4 3 3 2 3 3 3 3 4 5 7 6 6 6 5 5 6 6 5 5 4 5 4 5
13 17 15 13 12 13 12 12 12 12 12 11 11 11 10 11 9 8 7 5 2 1 1 3 3 3 4 4 4 6 7 7 6 6 7 6 6 6 6 4 4 4 3
11 13 17 12 13 13 13 13 12 12 11 11 10 10 13 10 8 7 7 5 4 3 2 3 4 4 4 4 5 5 7 7 8 8 7 8 6 7 7 6 4 4 3
12 12 13 13 13 13 13 14 13 13 13 13 12 9 11 9 8 8 8 6 5 5 4 4 4 5 4 4 4 5 6 8 8 8 8 7 9 8 7 7 5 3 4
12 13 14 13 13 14 13 13 13 13 12 13 10 11 11 10 9 8 8 7 7 6 5 5 5 5 5 4 3 4 6 7 8 8 9 8 8 8 8 8 8 4 4
12 14 14 13 12 12 12 13 13 15 14 13 10 10 11 10 10 10 8 7 6 7 5 5 5 7 6 4 4 4 5 6 7 9 12 10 9 9 7 8 8 7 6
12 13 13 13 13 12 13 13 13 13 13 12 10 11 11 11 10 10 9 8 7 7 7 6 5 6 8 6 6 7 7 8 9 11 8 11 11 12 9 7 8 7 6
12 13 12 12 12 12 12 12 13 12 12 12 12 12 11 11 12 10 8 9 8 7 8 6 6 8 8 6 6 5 6 9 10 11 10 10 10 9 8 9 9 7 7
Wind_Direction
240 249 242 246 253 257 257 261 264 271 275 278 273 273 279 284 284 295 301 300 295 293 299 296 291 293 289 285 288 283 281 271 266 286 293 299 296 287 286 286 281 261 255
236 244 247 252 255 259 266 273 274 274 274 279 283 285 287 293 299 301 301 297 287 281 284 283 285 282 284 279 278 284 277 272 274 284 292 289 282 288 295 292 282 263 254
235 233 251 254 255 258 260 261 261 266 271 279 281 281 282 288 289 288 291 284 282 284 285 280 279 274 274 279 289 282 279 277 280 284 288 287 288 296 301 300 282 265 261
233 238 250 253 248 251 256 259 264 264 268 269 270 269 264 266 273 281 280 280 282 280 277 265 270 266 271 283 284 284 282 286 284 281 283 287 290 303 312 310 288 262 265
239 242 246 256 258 261 262 262 261 257 259 261 265 261 262 268 273 274 270 273 275 275 271 268 259 258 267 274 278 286 289 290 286 287 290 291 299 316 309 304 299 301 285
305 297 296 297 299 291 283 277 269 265 263 263 263 264 261 258 264 264 262 268 272 273 270 270 266 266 267 255 264 273 279 286 286 288 293 291 295 299 297 310 305 306 305
360 351 342 332 322 314 304 291 277 269 263 254 255 257 259 254 243 252 255 257 267 270 272 268 273 274 269 283 288 282 284 276 268 281 284 288 294 295 301 297 299 299 286
3 354 345 336 328 324 317 306 295 284 271 261 252 249 252 255 235 240 251 258 263 268 266 269 272 281 277 291 289 293 293 292 293 291 289 291 290 299 291 282 289 290 288
356 346 339 333 325 321 316 305 298 286 273 264 260 242 241 244 229 228 239 263 260 264 269 269 280 284 288 280 290 291 297 295 292 284 280 286 290 284 282 293 288 309 301
347 340 336 334 328 323 320 317 306 291 279 270 262 248 237 242 227 224 243 245 257 260 263 266 255 271 282 274 285 291 292 304 317 316 317 314 312 309 304 306 297 291 300
343 339 339 337 333 328 321 318 314 305 292 276 261 247 240 232 235 211 230 242 242 252 254 263 262 264 276 283 286 282 287 303 302 302 308 312 313 320 329 333 321 312 307
341 340 341 339 337 331 327 323 319 314 300 283 266 255 233 225 230 216 229 237 230 236 240 248 255 260 280 285 283 284 292 303 301 307 308 315 320 326 325 320 324 327 334
341 336 334 333 333 334 330 325 322 327 320 295 276 258 238 204 219 208 228 243 238 233 231 239 262 280 293 291 297 318 310 309 308 313 315 315 320 312 300 310 302 319 36
333 331 328 329 329 328 326 324 322 321 326 322 292 255 230 191 209 215 214 239 239 231 230 242 249 252 276 274 288 288 291 296 304 307 308 306 305 314 322 323 310 356 1
327 326 324 326 328 325 323 322 320 322 318 324 316 265 208 203 196 215 210 228 237 243 254 230 236 221 263 301 298 284 283 286 304 308 300 308 315 322 328 330 329 354 304
329 330 324 323 326 323 320 319 319 321 329 347 347 316 283 249 207 222 218 234 250 244 223 227 224 255 272 329 330 321 311 310 317 312 307 314 315 321 325 324 290 274 205
330 328 321 322 321 322 321 320 318 325 323 335 354 359 359 268 219 214 199 269 276 194 219 208 205 217 292 295 318 327 324 319 308 318 321 319 317 315 324 317 303 2 60
327 324 326 323 318 314 317 315 318 321 325 330 340 349 358 3 35 116 121 111 95 62 284 266 42 1 347 332 319 309 322 322 325 332 333 320 322 325 317 319 295 217 162
328 326 328 321 319 315 313 318 319 321 322 321 327 336 356 356 357 17 54 99 99 66 27 348 9 335 321 326 320 321 317 314 314 319 330 331 327 323 318 307 289 245 190
325 324 323 324 321 321 317 314 316 320 320 318 316 327 340 341 345 350 355 7 26 49 30 333 329 328 330 318 322 329 315 315 320 325 333 332 328 323 322 311 306 276 214
324 324 327 318 324 321 322 318 315 311 314 316 319 320 328 318 313 314 317 314 311 313 304 273 289 296 297 307 328 328 320 321 317 317 320 331 324 323 323 318 287 277 235
325 324 322 326 321 321 325 314 325 317 316 319 317 320 326 311 314 311 306 310 318 308 297 289 275 275 280 294 313 316 316 311 313 322 319 323 324 319 314 316 311 281 240
324 323 325 324 323 323 324 321 319 317 318 313 319 324 320 315 316 312 311 301 298 298 299 290 274 268 261 262 287 298 303 307 311 314 318 311 313 313 313 310 310 295 230
329 328 327 326 325 318 322 324 318 316 313 316 317 319 317 310 305 304 304 308 315 306 302 289 280 274 272 262 280 292 296 303 310 309 312 302 301 304 301 300 299 298 269
333 331 331 327 324 320 321 321 319 318 316 302 320 319 317 321 309 305 300 301 303 295 292 290 283 282 267 261 279 295 296 302 310 309 308 304 291 291 286 284 279 274 253
334 332 330 327 323 323 321 318 318 314 315 311 309 309 310 316 318 320 309 308 304 304 301 291 291 291 271 274 283 297 312 310 311 315 315 301 288 284 283 282 272 261 239